Regional Weather Roundup
Issued by NWS

Home | Current Version | Previous Version | Text Only | Print | Product List | Glossary Off
Versions: 1 2 3 4 5 6 7 8 9 10 11 12 13 14 15 16 17 18 19 20 21 22 23 24 25 26 27 28 29 30 31 32 33 34 35 36 37 38 39 40 41 42 43 44 45 46 47 48 49 50

364
ASUS45 KCYS 280210
RWRWY

WYOMING REGIONAL WEATHER ROUNDUP
NATIONAL WEATHER SERVICE CHEYENNE WY
800 PM MDT MON MAR 27 2017

NOTE:  "FAIR" INDICATES FEW OR NO CLOUDS BELOW 12,000 FEET
WITH NO SIGNIFICANT WEATHER AND/OR OBSTRUCTIONS TO VISIBILITY.

WYZ001-280300-
YELLOWSTONE NATIONAL PARK

CITY           SKY/WX    TMP DP  RH WIND       PRES   REMARKS
LK YELLOWSTONE   N/A     29  29 100 W6        29.98R WCI  23
W YELLOWSTONE  NOT AVBL

$$
WYZ002>013-054>058-071-098>099-280300-
NORTHERN WYOMING

CITY           SKY/WX    TMP DP  RH WIND       PRES   REMARKS
JACKSON        CLOUDY    36  34  93 N9        29.95R WCI  29
CODY           FAIR      46  32  58 N13       29.90R
GREYBULL       FAIR      56  26  31 NW16      29.82R
WORLAND        CLOUDY    51  33  50 NE6       29.82R
SHERIDAN       CLOUDY    52  34  50 W8        29.88R
BUFFALO        CLOUDY    47  35  63 W16       29.92R
GILLETTE         N/A     51  34  52 MISG      29.87R
HULETT         MOCLDY    48  36  61 E5        29.89R
NEWCASTLE      FAIR      52  32  46 E7        29.86R

$$
WYZ014>020-022>026-101>103-280300-
CENTRAL WYOMING

CITY           SKY/WX    TMP DP  RH WIND       PRES   REMARKS
BIG PINEY      MOCLDY    37  28  70 NW10      29.89R WCI  30
PINEDALE       CLOUDY    36  28  75 CALM      29.90R
DUBOIS         FAIR      36  27  69 W15       29.88R WCI  26
LANDER         CLOUDY    49  28  44 NW7       29.81R
RIVERTON       FAIR      48  29  47 N6        29.83R
CASPER         FAIR      46  31  55 NE8       29.83R
DOUGLAS        FAIR      51  27  39 NE14      29.83R

$$
WYZ021-027>030-104>119-280300-
SOUTHERN WYOMING

CITY           SKY/WX    TMP DP  RH WIND       PRES   REMARKS
EVANSTON       SNOW      32  30  92 N12       29.89R VSB 1/4 WCI  23
KEMMERER       LGT SNOW  32  32 100 NW9       29.91R VSB 3/4 WCI  24
FORT BRIDGER   SNOW      34  34 100 N6        29.91S VSB 1/4 WCI  29
ROCK SPRINGS   LGT RAIN  37  34  89 N10       29.86R WCI  30
DIXON            N/A     41  38  88 NE7       29.88F
RAWLINS        LGT RAIN  36  34  92 SW10      29.89R WCI  28
SARATOGA       LGT RAIN  36  36 100 W6        29.90S WCI  31
LARAMIE        LGT RAIN  39  35  86 S12       29.87R WCI  32
CHEYENNE       RAIN      44  39  82 S8        29.87R
TORRINGTON     CLOUDY    59  27  29 NE7       29.80R
PINE BLUFFS    CLOUDY    54  30  40 S10G18    29.82S

$$




USA.gov is the U.S. government's official web portal to all federal, state and local government web resources and services.